STARLINK-35555

Last updated on Fri Dec 12 2025 00:02:05 GMT+0000 (Coordinated Universal Time)

1 66425U 25259D 25345.57624345 .00055715 00000+0 13303-2 0 9995 2 66425 43.0011 54.7288 0001505 285.8052 74.2638 15.40722858 5983
UTC large
Height (km)
Speed (km/s)
/
Latitude / Longitude
Inclination (degrees)
Orbital Period (minutes)
Azimuth
Elevation
Range (km)
Doppler Factor

Next 0 passes for location: London (51.5072 / 0.1276)

Sorry there are no passes over London.